Pine Ridge, SD

1:04 PM MDT on July 26, 2017 (GMT -0600)
Pine Ridge

Weather History for KIEN - May, 2014

Change the Weather History Date:

Friday, May 16, 2014

  Actual Average Record
Temperature  
Mean Temperature 50 °F 56 °F  
Max Temperature 59 °F 70 °F 91 °F (2012)
Min Temperature 40 °F 42 °F 30 °F (2006)
Degree Days  
Heating Degree Days 15 10  
Month to date heating degree days 294 195  
Since 1 July heating degree days 7331 7015  
Cooling Degree Days 0 0  
Month to date cooling degree days 0 0  
Year to date cooling degree days 1 0  
Moisture  
Dew Point 38 °F    
Average Humidity 68    
Maximum Humidity 86    
Minimum Humidity 50    
Precipitation  
Precipitation 0.02 in 0.06 in 0.31 in (2013)
Month to date precipitation 2.42 1.36  
Year to date precipitation 6.19 4.93  
Sea Level Pressure  
Sea Level Pressure 30.04 in    
Wind  
Wind Speed 11 mph (NNW)    
Max Wind Speed 31 mph    
Max Gust Speed 43 mph    
Visibility 10 miles    
Events Rain    
T = Trace of Precipitation, MM = Missing Value Source: NWS Daily Summary

Daily Weather History Graph

Daily Weather History Graph

Search for Another Location

Airport or City:

Trip Planner

Search our weather history database for the weather conditions in past years. The results will help you decide how hot, cold, wet, or windy it might be!

Date:

Astronomy

May. 16, 2014 Rise Set
Actual Time 5:25 AM MDT 8:07 PM MDT
Civil Twilight 4:52 AM MDT 8:40 PM MDT
Nautical Twilight 4:11 AM MDT 9:22 PM MDT
Astronomical Twilight 3:24 AM MDT 10:09 PM MDT
Moon 10:16 PM MDT (5/16) 7:09 AM MDT (5/16)
Length of Visible Light 15h 47m
Length of Day
14h 42m
Waning Gibbous, 95% of the Moon is Illuminated
May 16
Waning Gibbous
May 21
Last Quarter
May 28
New
Jun 5
First Quarter
Jun 12
Full

Hourly Weather History & Observations

Time (MDT) Temp. Windchill Dew Point Humidity Pressure Visibility Wind Dir Wind Speed Gust Speed Precip Events Conditions
12:52 AM 48.9 °F - 30.0 °F 48% 30.03 in 10.0 mi SSE 9.2 mph - 0.00 in   Overcast
2:52 AM 48.0 °F - 30.9 °F 52% 29.98 in 10.0 mi South 12.7 mph - N/A   Scattered Clouds
3:52 AM 46.9 °F - 30.9 °F 54% 29.98 in 10.0 mi SSW 4.6 mph - N/A   Overcast
4:52 AM 46.9 °F - 30.0 °F 52% 29.96 in 10.0 mi SSW 11.5 mph - N/A   Scattered Clouds
5:52 AM 42.1 °F 37.7 °F 36.0 °F 79% 29.98 in 10.0 mi SW 6.9 mph - 0.01 in Rain Light Rain
6:52 AM 43.0 °F 36.0 °F 37.9 °F 82% 29.97 in 10.0 mi SSW 13.8 mph - 0.00 in Rain Light Rain
7:52 AM 46.9 °F - 43.0 °F 86% 29.98 in 10.0 mi West 6.9 mph - 0.01 in   Overcast
8:52 AM 53.1 °F - 45.0 °F 74% 29.99 in 10.0 mi NW 11.5 mph - N/A   Partly Cloudy
9:52 AM 57.0 °F - 43.0 °F 59% 29.99 in 10.0 mi North 18.4 mph 27.6 mph N/A   Partly Cloudy
10:52 AM 57.0 °F - 41.0 °F 55% 30.00 in 10.0 mi North 21.9 mph 34.5 mph N/A   Mostly Cloudy
11:52 AM 57.9 °F - 39.9 °F 51% 29.99 in 10.0 mi North 24.2 mph 35.7 mph N/A   Scattered Clouds
12:52 PM 57.9 °F - 41.0 °F 53% 30.02 in 10.0 mi North 23.0 mph 39.1 mph N/A   Mostly Cloudy
2:52 PM 57.0 °F - 41.0 °F 55% 30.05 in 10.0 mi NNE 25.3 mph 35.7 mph N/A   Clear
3:52 PM 57.0 °F - 39.9 °F 53% 30.07 in 10.0 mi North 19.6 mph 29.9 mph N/A   Partly Cloudy
4:52 PM 53.1 °F - 39.9 °F 61% 30.10 in 10.0 mi NNE 17.3 mph - N/A   Overcast
5:52 PM 51.1 °F - 39.0 °F 63% 30.11 in 10.0 mi ENE 10.4 mph - N/A   Mostly Cloudy
6:52 PM 48.9 °F - 39.9 °F 71% 30.13 in 10.0 mi East 6.9 mph - N/A   Mostly Cloudy
7:52 PM 46.9 °F - 39.9 °F 77% 30.13 in 10.0 mi East 5.8 mph - N/A   Mostly Cloudy
9:52 PM 43.0 °F - 37.9 °F 82% 30.13 in 10.0 mi Calm Calm - N/A   Mostly Cloudy
10:52 PM 41.0 °F - 37.0 °F 86% 30.13 in 10.0 mi Calm Calm - N/A   Clear
11:52 PM 41.0 °F 39.0 °F 37.0 °F 86% 30.12 in 10.0 mi West 3.5 mph - N/A   Partly Cloudy